[[{"header":{"parameterUnit":"m.s-1","parameterCategory":1,"la1":30.2991,"la2":30.254,"lo1":-89.0895,"lo2":-89.0444,"dy":0.0017,"dx":0.0017,"nx":28,"ny":28,"refTime":"2025-07-09T21:00:00:Z","depth":0,"parameterNumber":2,"parameterNumberName":"U-component_of_WINDS"},"data":[0,0,0,0,0,0,0,0,0,0,0,0,0,0,0,0,0,0,0,0,0,0,0,0,0,0,0,0,0,0,0,0,0,0,0,0,0,0,0,0,0,0,0,0,0,0,0,0,0,0,0,0,0,0,0,0,0,0,4.9256,4.9257,0,4.9284,4.9285,4.9285,4.9155,4.9151,4.9148,4.9144,4.9176,4.918,4.9184,0,0,0,0,0,0,0,0,0,0,0,0,0,4.9091,4.9095,4.9256,4.9257,4.9257,4.9284,4.9285,4.9285,4.9156,4.9151,4.9147,4.9142,4.9174,4.9179,4.9185,0,0,0,0,0,0,0,0,0,0,0,0,0,4.9146,4.9096,4.9256,4.9196,4.9191,4.9284,4.9285,4.9285,4.9157,4.9151,4.9145,4.914,4.9173,4.9179,4.9185,4.9339,0,0,4.9205,4.9208,0,0,0,0,0,0,0,0,4.9143,4.9152,4.9204,4.92,4.9194,4.921,4.9238,4.9303,4.9158,4.917,4.9144,4.9137,4.9192,4.9197,4.9214,4.9341,4.9342,4.9206,4.921,4.9213,4.9215,0,0,0,0,0,0,0,4.9139,4.915,4.9267,4.9205,4.9199,4.9167,4.9169,4.925,4.9212,4.9168,4.9159,4.9164,4.9188,4.9208,4.9214,4.9343,4.9206,4.9212,4.9216,4.9218,4.9592,4.9598,0,0,0,0,0,0,4.9143,4.9148,4.9266,4.9268,4.9154,4.9175,4.9176,4.9211,4.9211,4.9206,4.9169,4.9158,4.92,4.9207,4.9215,4.9392,4.9213,4.9219,4.9223,4.9586,4.9594,4.96,0,0,0,0,0,0,4.914,4.9155,4.9265,4.9205,4.9217,4.9184,4.9224,4.9215,4.9234,4.9211,4.9204,4.9196,4.9196,4.9206,4.9308,4.9391,4.9222,4.9228,4.9579,4.9589,4.9597,4.9749,0,0,0,0,0,0,4.9136,4.9155,4.9213,4.9208,4.9221,4.9359,4.9229,4.9219,4.9246,4.9232,4.9235,4.923,4.9192,4.9299,4.9315,4.9397,4.9233,4.9572,4.9583,4.9594,4.9736,4.9762,4.9784,0,0,0,0,0,4.9131,4.9257,4.9217,4.9232,4.9293,4.9364,4.9371,4.9324,4.9253,4.9311,4.9295,4.923,4.938,4.9311,4.9327,4.9413,4.9566,4.958,4.9593,4.9726,4.9757,4.9784,0,0,0,0,0,0,4.9275,4.9255,4.9211,4.9338,4.9353,4.9342,4.9413,4.9359,4.9395,4.9381,4.9321,4.9323,4.9435,4.9435,4.9358,4.956,4.9461,4.9478,4.9556,4.9585,4.9609,4.9606,4.9238,0,0,0,0,0,4.9321,4.938,4.9359,4.9474,4.9484,4.9448,4.9477,4.9439,4.9452,4.9458,4.9451,4.9467,4.9517,4.9552,4.9597,4.9736,4.9733,4.9803,4.9827,4.9846,4.9862,4.9932,4.9961,4.9645,4.9644,4.9644,0,0,4.9418,4.9414,4.9455,4.9503,4.951,4.9571,4.9454,4.9525,4.957,4.947,4.9564,4.956,4.9574,4.9694,4.9747,4.9697,4.9949,4.9864,4.988,4.9884,4.9949,4.9979,5.0005,4.9654,4.9652,4.9651,0,0,4.9625,4.963,4.9723,4.9732,4.9743,4.9718,4.9741,4.9737,4.9729,4.9823,4.9748,4.9801,4.9889,4.9901,4.9919,5.0127,5.0068,5.0144,5.0268,5.0337,5.0362,5.0384,5.0455,5.0482,5.016,5.016,5.016,0,4.9744,4.9833,4.9779,4.9854,4.9875,4.9786,4.9879,4.9891,4.9918,4.9935,4.9878,4.9985,4.9989,5.0109,5.0159,5.0178,5.02,5.0143,5.0363,5.0384,5.0403,5.0471,5.0498,5.0169,5.0168,5.0167,5.0166,0,4.9977,5.004,5.0115,5.014,5.017,5.0255,5.0213,5.025,5.0209,5.0189,5.0285,5.0286,5.0328,5.0354,5.0316,5.0468,5.0436,5.0373,5.0271,5.0443,5.0505,5.0531,5.0182,5.0179,5.0176,5.0174,0,0,5.0277,5.0268,5.0296,5.0304,5.0309,5.0357,5.0436,5.0475,5.0507,5.0529,5.0592,5.0668,5.0607,5.0628,5.059,5.0651,5.0812,5.0579,5.0578,5.0619,5.0976,5.1022,5.1053,5.0773,5.0777,5.0781,5.0974,0,5.0477,5.061,5.0562,5.0699,5.0754,5.0669,5.0737,5.0748,5.0731,5.0776,5.0758,5.0811,5.0729,5.074,5.0797,5.078,5.0882,5.0766,5.083,5.0833,5.0826,5.1086,5.1135,5.1317,5.0998,5.1002,5.1005,0,5.0729,5.0756,5.0898,5.0889,5.091,5.0973,5.1003,5.1048,5.1057,5.104,5.1062,5.101,5.1086,5.0986,5.1089,5.1012,5.1035,5.1031,5.1037,5.1039,5.0928,5.1092,5.1374,5.14,5.1043,5.104,5.1038,0,5.0929,5.1002,5.1094,5.1105,5.1098,5.1143,5.1143,5.1146,5.1172,5.1199,5.1214,5.1251,5.1271,5.13,5.1259,5.119,5.1367,5.1265,5.1354,5.1355,5.1393,5.1391,5.168,5.1414,5.1413,5.1413,5.1412,0,5.1156,5.1245,5.1183,5.1241,5.1337,5.1281,5.1378,5.1368,5.1371,5.1424,5.1354,5.1406,5.1349,5.1395,5.1364,5.1452,5.1463,5.145,5.1441,5.1455,5.1456,5.1468,5.1453,5.142,5.1418,5.1417,5.1416,0,5.1395,5.1358,5.1453,5.1437,5.1435,5.1507,5.1493,5.1545,5.1523,5.1591,5.1603,5.1569,5.1619,5.1581,5.1632,5.161,5.1726,5.17,5.1722,5.1714,5.1804,5.1795,5.2109,5.2145,5.1858,5.1861,5.1863,0,5.1541,5.1607,5.1597,5.1627,5.163,5.1679,5.1703,5.165,5.1679,5.1692,5.1742,5.1786,5.1817,5.1902,5.1881,5.1919,5.1891,5.1998,5.1896,5.1908,5.1889,5.1884,5.1889,5.2018,5.2022,5.2025,5.2027,0,5.1803,5.1781,5.1818,5.1848,5.1879,5.1901,5.1917,5.1946,5.1891,5.1927,5.1976,5.2001,5.205,5.2093,5.2123,5.2122,5.2066,5.2059,5.2081,5.2096,5.2104,5.2097,5.1775,5.2052,5.2049,5.2048,5.2046,5.2045,5.1998,5.2051,5.2051,5.2094,5.21,5.2116,5.2163,5.2145,5.2184,5.2219,5.2186,5.2244,5.2249,5.2282,5.2288,5.2333,5.2289,5.2322,5.233,5.2338,5.2349,5.2099,5.2339,5.2338,5.2338,5.2337,5.2336,0,5.2254,5.2249,5.2289,5.2312,5.2345,5.2287,5.2302,5.2333,5.2385,5.2394,5.2425,5.248,5.2521,5.2503,5.2539,5.2578,5.2553,5.2589,5.2585,5.2585,5.2388,5.2364,5.2609,5.2609,5.2609,5.2609,5.2609,5.2609,5.239,5.2475,5.2452,5.2539,5.2534,5.2588,5.2601,5.2615,5.2621,5.2685,5.2718,5.2705,5.2702,5.2736,5.2771,5.2765,5.278,5.2825,5.281,5.2626,5.2599,5.2573,5.255,5.283,5.283,5.3001,5.3003,5.3004]},{"header":{"parameterUnit":"m.s-1","parameterCategory":1,"la1":30.2991,"la2":30.254,"lo1":-89.0895,"lo2":-89.0444,"dy":0.0017,"dx":0.0017,"nx":28,"ny":28,"refTime":"2025-07-09T21:00:00:Z","depth":0,"parameterNumber":3,"parameterNumberName":"V-component_of_WINDS"},"data":[0,0,0,0,0,0,0,0,0,0,0,0,0,0,0,0,0,0,0,0,0,0,0,0,0,0,0,0,0,0,0,0,0,0,0,0,0,0,0,0,0,0,0,0,0,0,0,0,0,0,0,0,0,0,0,0,0,0,3.7152,3.7154,0,3.731,3.7312,3.7314,3.7323,3.7322,3.732,3.7318,3.7481,3.7487,3.7493,0,0,0,0,0,0,0,0,0,0,0,0,0,3.6859,3.6865,3.7152,3.7154,3.7156,3.731,3.7312,3.7314,3.7324,3.7322,3.7319,3.7317,3.7479,3.7487,3.7494,0,0,0,0,0,0,0,0,0,0,0,0,0,3.6999,3.6866,3.7152,3.7179,3.7183,3.7309,3.7312,3.7315,3.7324,3.7321,3.7319,3.7316,3.7477,3.7486,3.7495,3.7604,0,0,3.7522,3.7526,0,0,0,0,0,0,0,0,3.6991,3.701,3.7173,3.7178,3.7182,3.7294,3.7269,3.7412,3.7325,3.7271,3.7318,3.7315,3.7421,3.7435,3.747,3.7612,3.7619,3.7523,3.7529,3.7533,3.7535,0,0,0,0,0,0,0,3.6981,3.7003,3.7215,3.7176,3.7181,3.7184,3.7201,3.7296,3.7359,3.7275,3.7276,3.7295,3.7423,3.7462,3.7474,3.7622,3.7523,3.7531,3.7537,3.754,3.786,3.7863,0,0,0,0,0,0,3.6966,3.6995,3.7209,3.7219,3.7078,3.7191,3.721,3.7261,3.7358,3.7371,3.7297,3.7295,3.7448,3.7464,3.748,3.7614,3.7532,3.7541,3.7546,3.7857,3.7861,3.7864,0,0,0,0,0,0,3.696,3.6985,3.7203,3.7107,3.7135,3.7199,3.7256,3.7266,3.7304,3.7375,3.7386,3.7324,3.7446,3.7467,3.7573,3.762,3.7545,3.7553,3.7853,3.7858,3.7862,3.7883,0,0,0,0,0,0,3.6951,3.6983,3.7025,3.7108,3.714,3.7293,3.7259,3.7271,3.7319,3.7318,3.7403,3.7415,3.7446,3.756,3.7582,3.7631,3.756,3.7849,3.7855,3.7861,3.7879,3.7888,3.7896,0,0,0,0,0,3.6941,3.7025,3.7027,3.7053,3.7194,3.7296,3.7314,3.7347,3.7323,3.7366,3.7411,3.7412,3.7611,3.757,3.7596,3.7648,3.7847,3.7854,3.786,3.7875,3.7886,3.7896,0,0,0,0,0,0,3.6947,3.7037,3.704,3.7154,3.7217,3.7297,3.7353,3.7359,3.7431,3.7426,3.7465,3.7484,3.7588,3.7629,3.7582,3.7759,3.7726,3.7738,3.7728,3.774,3.7748,3.7736,3.7568,0,0,0,0,0,3.6961,3.7036,3.7111,3.7204,3.7235,3.7288,3.7334,3.7354,3.7421,3.7448,3.7501,3.7567,3.7644,3.7694,3.777,3.7885,3.7903,3.7933,3.7942,3.7949,3.7959,3.8022,3.8036,3.7887,3.7887,3.7886,0,0,3.6992,3.7051,3.7095,3.7206,3.7258,3.7334,3.7311,3.7393,3.745,3.7461,3.7564,3.7605,3.7681,3.7791,3.7843,3.7828,3.8004,3.7957,3.7962,3.7969,3.803,3.8044,3.8057,3.7891,3.7891,3.789,0,0,3.7087,3.7139,3.7222,3.7274,3.7351,3.7386,3.7406,3.7485,3.7513,3.7616,3.7626,3.7694,3.7827,3.788,3.7924,3.8038,3.8042,3.8062,3.8107,3.8168,3.818,3.819,3.823,3.8244,3.8072,3.8072,3.8072,0,3.7116,3.7231,3.7264,3.7346,3.7394,3.7406,3.749,3.7539,3.7638,3.7671,3.7653,3.7819,3.7871,3.7993,3.8021,3.8057,3.808,3.8052,3.8175,3.8186,3.8197,3.8235,3.825,3.8074,3.8073,3.8073,3.8073,0,3.7262,3.7342,3.7399,3.7493,3.7548,3.763,3.7676,3.7727,3.7742,3.7778,3.7883,3.7946,3.8033,3.8064,3.808,3.8189,3.8177,3.8167,3.8135,3.8212,3.8249,3.8264,3.8076,3.8076,3.8075,3.8075,0,0,3.7366,3.7476,3.7496,3.7538,3.7625,3.7687,3.777,3.7855,3.7898,3.7965,3.8035,3.8147,3.8137,3.8188,3.8209,3.8263,3.8348,3.8246,3.8248,3.8262,3.8471,3.8478,3.8494,3.8351,3.8354,3.8356,3.8465,0,3.747,3.7617,3.7648,3.7775,3.7849,3.7861,3.7933,3.7994,3.803,3.8098,3.8138,3.8216,3.8198,3.8228,3.8282,3.8326,3.839,3.8319,3.8416,3.8419,3.8396,3.8514,3.8522,3.8621,3.8479,3.8482,3.8484,0,3.7611,3.768,3.7814,3.789,3.7922,3.7986,3.8065,3.813,3.8199,3.8222,3.8277,3.8293,3.838,3.8343,3.8463,3.8413,3.8455,3.8483,3.8488,3.8498,3.8456,3.8526,3.8653,3.8668,3.8507,3.8505,3.8503,0,3.7672,3.7799,3.7895,3.7931,3.8022,3.8067,3.8107,3.8173,3.8221,3.8291,3.8323,3.8402,3.8445,3.8506,3.8543,3.8513,3.8659,3.8626,3.868,3.8679,3.871,3.8708,3.8845,3.8738,3.8738,3.8738,3.8737,0,3.7784,3.7866,3.7924,3.7983,3.8074,3.811,3.8199,3.8239,3.8298,3.8365,3.8381,3.8443,3.8488,3.8557,3.8587,3.8681,3.87,3.8721,3.8727,3.8719,3.8716,3.8747,3.874,3.8742,3.8741,3.874,3.8739,0,3.7868,3.791,3.8016,3.8092,3.8114,3.8177,3.8243,3.8301,3.8337,3.8422,3.8444,3.8501,3.8582,3.8625,3.8728,3.8748,3.8853,3.8856,3.8829,3.8832,3.8883,3.8877,3.9044,3.9067,3.8945,3.8946,3.8947,0,3.7936,3.7999,3.8082,3.8128,3.8168,3.8242,3.8291,3.8328,3.8379,3.8462,3.851,3.8592,3.866,3.8791,3.8841,3.892,3.8924,3.8977,3.8936,3.8925,3.8924,3.892,3.8926,3.8984,3.8985,3.8986,3.8987,0,3.8053,3.8071,3.8141,3.8218,3.8276,3.8339,3.8402,3.8438,3.8486,3.8542,3.8625,3.8678,3.8782,3.8864,3.8946,3.8987,3.8995,3.9,3.9016,3.9008,3.8989,3.8999,3.8848,3.8996,3.8995,3.8994,3.8994,3.8993,3.8131,3.8187,3.8253,3.8331,3.8381,3.8439,3.8497,3.8539,3.8609,3.8697,3.8715,3.8803,3.8869,3.898,3.9024,3.9094,3.9083,3.9107,3.9113,3.9118,3.912,3.8979,3.9109,3.9109,3.9109,3.9108,3.9108,0,3.8248,3.8291,3.8362,3.8448,3.8509,3.851,3.8579,3.863,3.8707,3.8768,3.8834,3.893,3.9009,3.9065,3.9146,3.9191,3.9196,3.9211,3.9207,3.9217,3.9125,3.9103,3.9205,3.9205,3.9205,3.9205,3.9204,3.9204,3.8316,3.841,3.8435,3.8554,3.8597,3.8683,3.8722,3.8775,3.8824,3.893,3.8995,3.9031,3.9091,3.9175,3.9248,3.9263,3.9291,3.9305,3.932,3.9233,3.9223,3.9213,3.9192,3.9311,3.9311,3.9405,3.9406,3.9407]}]]